Starlink 6188

operational
NORAD ID: 56376 Int'l Des: 2023-061 Owner: SPXS Country: US Constellation: starlink
LEOCIRCULAR

Über Starlink 6188

Beschreibung wird geladen...

Live-Position

3D-Globus wird geladen...

Nächste Überflüge

Höhenverlauf

Altitude vs Time

uPlot chart will show altitude changes over time

Zweizeiliger Elementsatz

1 56376U 23061C 25352.50322488 -.00000016 00000-0 13873-4 0 9992
2 56376 43.0036 278.4839 0001001 274.8225 85.2503 15.02534084144541
Epoch: 18. Dez. 2025 • Age: 15 hours

Aktueller Status

Höhe 561.8 km
Geschwindigkeit 7.59 km/s
Subsatellitenpunkt 38.20°N, 156.57°W
Startdatum 4. Mai 2023
Alter 2.6 years
Typ internet

Technische Details

Klassifizierung Payload
Masse 305.00 kg
Trockenmasse 290.00 kg
Gesamtmasse 305.00 kg
Länge 0.20 m
Durchmesser 2.80 m
Spannweite 9.00 m
Form Box + pan
Hersteller SPXS
Bus-Typ Starlink
Phasenstatus In Orbit
Besitzer/Staat SPXS/US

Große Konstellationen

Loading constellations...